{"data":{"norad_id":64726,"intl_designator":"2025-144C","name":"STARLINK-34557","alt_names":[],"object_type":"PAYLOAD","status":"ACTIVE","operator":null,"country":"US","launch_date":"2025-07-02","launch_site_code":"AFETR","launch_vehicle":null,"mission":null,"orbit_class":"UNKNOWN","rcs_meters":null,"size_class":null,"mass_kg":null,"dimensions":null,"purposes":["comms"],"wikipedia_slug":null,"has_3d_model":false,"image_url":null,"decayed_at":null,"tle_current":{"epoch":"2026-05-24T20:29:37.004064Z","epoch_age_seconds":94620,"freshness":"FRESH","line1":"1 64726U 25144C   26144.85390051  .00015042  00000+0  51896-3 0  9992","line2":"2 64726  53.1588 187.2186 0001144  80.7233 279.3897 15.30199999 51379","mean_motion":15.30199999,"eccentricity":0.0001144,"inclination_deg":53.1588,"raan_deg":187.2186,"arg_perigee_deg":80.7233,"mean_anomaly_deg":279.3897,"bstar":0.00051896,"rev_number":5137,"period_min":94.105345767942,"perigee_km":474.43104892806,"apogee_km":475.99909588223,"semimajor_km":6853.3520724051,"source":"CELESTRAK","updated_at":"2026-05-25T13:38:20.519404Z"}}}